Tracking 20621 objects as of 1-Apr-2020
HD Live streaming from Space Station
objects crossing your sky now

COSMOS 1249 COOLANT

Track COSMOS 1249 COOLANT now!
10-day predictions


NORAD ID: 26511
Int'l Code: 1981-021N
Perigee: 886.4 km
Apogee: 980.5 km
Inclination: 65.0 °
Period: 103.5 minutes
Semi major axis: 7304 km
RCS: 0.0065 m2 (small)
Launch date: March 5, 1981
Source: Commonwealth of Independent States (former USSR) (CIS)
Launch site: TYURATAM MISSILE AND SPACE COMPLEX (TTMTR)

Note: This is SATELLITE DEBRIS
aabbcc
Your satellite tracking list
Your tracking list is empty




NASA's NSSDC Master Catalog

Two Line Element Set (TLE):
1 26511U 81021N   20090.48239326 -.00000016  00000-0  59166-4 0  9994
2 26511  64.9600 159.7146 0064424 276.9883  95.4728 13.90667527 24623
Source of the keplerian elements: AFSPC